SCP
-0 0 0 0 0 0 0 0 0 0 0 0 0 0 -0 0 -0 0 -0 0 -0 0 -0 -0 0 0 0 0 0 0 -0 0 -0 0 -0 -0 -0 -0 0 -0 -0 -0 -0
-0 0 0 0 -0 0 0 0 0 0 0 0 0 0 0 -0 -0 0 -0 0 0 0 0 -0 -0 0 0 0 0 0 0 -0 0 0 -0 -0 -0 -0 -0 0 -0 -0 -0
-0 -0 -0 -0 -0 -0 -0 0 -0 0 -0 -0 -0 0 -0 0 -0 -0 -0 -0 -0 -0 -0 0 -0 -0 0 0 0 0 0 -0 -0 0 0 0 -0 -0 -0 -0 -0 -0 -0
-0 -0 -0 -0 -0 -0 -0 -0 0 -0 -0 -0 0 0 -0 -0 -0 -0 -0 -0 -0 -0 -0 0 -0 -0 -0 -0 0 0 0 -0 -0 -0 0 0 0 -0 -0 -0 -0 -0 -0
-0 -0 -0 0 -0 -0 -0 0 0 -0 -0 -0 0 -0 0 0 0 0 0 -0 0 -0 0 -0 0 -0 -0 -0 -0 -0 0 -0 0 -0 -0 -0 -0 -0 -0 -0 -0 -0 0
-0 -0 -0 -0 0 -0 -0 -0 -0 -0 -0 -0 0 0 0 0 0 0 0 0 0 0 -0 0 0 0 0 -0 -0 -0 -0 -0 -0 -0 0 -0 -0 0 -0 -0 -0 -0 -0
-0 -0 -0 0 -0 -0 -0 -0 -0 -0 -0 -0 0 0 0 0 0 0 0 0 0 0 0 0 0 0 0 0 0 0 -0 -0 -0 0 0 0 -0 -0 -0 -0 -0 -0 -0
-0 -0 -0 -0 -0 0 -0 0 0 0 -0 0 0 0 0 0 0 0 0 -0 0 0 -0 0 0 0 -0 -0 0 0 -0 -0 -0 0 0 -0 -0 -0 -0 0 -0 -0 -0
-0 -0 -0 -0 0 0 0 0 0 0 0 0 0 0 0 0 0 0 0 -0 0 -0 0 -0 0 0 -0 -0 0 0 -0 -0 -0 0 0 0 -0 -0 -0 -0 0 0 0
0 -0 -0 -0 -0 -0 -0 0 0 0 0 0 0 0 -0 -0 -0 -0 -0 -0 -0 -0 -0 -0 -0 -0 -0 -0 -0 -0 -0 -0 -0 -0 0 0 -0 -0 -0 0 -0 -0 0
-0 -0 -0 -0 -0 -0 -0 -0 -0 -0 -0 0 -0 -0 -0 -0 -0 -0 -0 -0 -0 -0 -0 -0 -0 -0 -0 -0 -0 -0 -0 -0 0 -0 0 -0 -0 0 0 -0 -0 0 0
-0 0 -0 0 -0 -0 -0 -0 -0 -0 -0 -0 -0 0 -0 0 0 0 -0 -0 -0 -0 -0 -0 -0 -0 -0 -0 -0 -0 -0 -0 0 0 0 0 -0 0 0 -0 -0 -0 0
0 0 -0 0 0 -0 -0 -0 -0 -0 0 -0 -0 0 -0 -0 -0 -0 0 0 0 -0 -0 -0 -0 0 0 0 0 0 0 0 0 0 0 -0 -0 0 -0 -0 -0 -0 0
-0 0 -0 -0 0 0 0 -0 0 -0 -0 -0 -0 -0 -0 -0 0 -0 0 0 0 0 0 -0 0 0 0 0 0 -0 -0 -0 -0 0 -0 0 0 -0 -0 -0 -0 -0 -0
-0 -0 -0 -0 0 0 -0 -0 -0 -0 -0 -0 -0 -0 -0 -0 -0 0 0 0 0 0 0 0 0 0 0 0 0 0 0 -0 0 0 0 -0 -0 -0 -0 -0 -0 -0 -0
0 0 -0 -0 -0 -0 -0 0 -0 0 0 0 -0 -0 -0 -0 -0 0 0 0 0 0 0 0 0 0 0 0 0 -0 -0 0 0 -0 0 0 -0 -0 -0 -0 -0 -0 -0
0 -0 -0 -0 -0 -0 -0 -0 -0 0 -0 -0 -0 -0 -0 -0 0 0 0 0 0 0 0 0 0 0 0 0 0 0 -0 -0 0 0 0 0 0 -0 -0 -0 -0 -0 -0
0 -0 0 0 -0 -0 -0 -0 -0 -0 -0 -0 -0 -0 -0 -0 0 0 0 0 0 0 0 0 0 0 0 0 -0 -0 -0 -0 -0 0 0 0 0 0 -0 -0 -0 -0 -0
0 -0 0 0 0 -0 -0 0 -0 0 -0 -0 -0 0 -0 -0 -0 0 0 0 0 0 0 0 0 0 0 -0 0 0 0 0 -0 0 0 -0 0 0 0 -0 -0 -0 -0
0 -0 0 0 0 0 -0 -0 0 -0 -0 -0 -0 -0 -0 -0 -0 0 0 0 1 1 0 0 -0 -0 -0 -0 0 -0 0 -0 -0 -0 -0 -0 0 -0 0 0 0 0 -0
-0 0 -0 0 -0 -0 0 0 0 -0 -0 -0 -0 -0 -0 -0 -0 0 0 0 0 0 0 0 0 -0 -0 -0 0 0 -0 -0 -0 0 -0 -0 0 0 0 0 0 0 0
-0 -0 0 -0 -0 -0 0 0 0 0 0 0 0 0 -0 -0 0 0 0 0 0 0 0 0 0 0 0 -0 0 0 0 0 0 0 -0 0 0 0 0 0 0 0 0
-0 -0 -0 -0 -0 -0 0 0 0 -0 -0 0 -0 -0 -0 0 0 0 0 0 0 0 0 0 0 0 0 -0 -0 0 0 0 0 0 0 0 0 0 0 0 0 0 0
0 -0 0 -0 -0 -0 0 0 0 0 -0 -0 0 0 0 0 0 0 0 0 0 0 0 0 0 0 0 -0 0 0 0 0 0 0 0 0 0 0 0 0 0 0 0
-0 0 -0 -0 -0 0 -0 0 0 0 -0 -0 0 -0 0 0 0 0 0 0 0 0 0 0 -0 -0 -0 0 0 0 0 0 0 0 0 0 0 0 0 0 0 0 0
-0 -0 -0 -0 -0 0 0 0 0 0 0 0 0 0 0 0 0 0 0 0 0 0 0 0 0 0 0 0 0 0 0 0 0 0 0 0 0 0 0 0 0 0 0
Wind_Speed_500mb
23 21 27 28 32 32 37 40 40 42 42 39 35 32 31 29 28 28 30 30 29 26 25 22 22 24 23 24 26 26 26 23 22 22 23 27 29 31 40 39 32 20 27
30 29 31 33 34 34 37 39 39 38 38 35 32 29 25 24 26 26 30 26 23 21 19 18 19 20 22 24 24 22 18 15 14 13 12 19 29 27 26 33 23 20 24
34 31 33 33 34 34 35 36 37 34 32 30 26 24 22 26 26 26 24 21 22 21 17 13 13 16 18 19 17 15 12 12 15 17 9 28 19 23 20 18 19 22 25
34 32 31 34 35 34 34 34 33 29 27 24 23 21 20 23 22 20 19 17 18 17 16 12 11 12 12 13 13 11 10 11 15 17 20 24 19 16 18 18 21 26 24
39 33 34 36 34 34 34 32 30 26 24 23 21 20 20 19 19 17 14 13 12 13 13 10 9 9 7 9 7 7 7 10 13 20 10 10 22 15 12 16 19 22 21
40 32 37 36 35 34 32 29 27 25 24 21 20 20 18 15 13 12 10 7 8 8 9 7 6 6 5 5 6 3 3 7 17 8 6 9 6 2 8 14 14 12 14
39 31 35 34 32 30 29 27 25 22 21 19 18 16 13 10 9 8 7 7 7 8 6 6 7 6 7 8 7 3 3 8 13 2 6 7 2 4 7 12 12 11 12
36 30 30 31 29 27 25 23 21 20 18 17 16 15 13 10 8 7 8 8 7 7 7 5 6 6 4 6 10 7 3 6 12 4 7 4 9 4 8 10 11 11 11
30 33 28 25 26 25 23 20 19 18 17 15 13 12 10 9 8 7 5 6 7 8 8 6 6 6 5 5 7 7 6 5 3 8 5 5 8 3 7 7 7 9 9
32 27 25 22 18 16 17 17 17 17 14 14 14 10 9 9 7 13 5 5 3 8 8 9 9 11 11 9 10 12 11 6 6 13 4 14 9 8 12 10 7 9 11
31 27 27 24 21 20 15 16 17 15 13 10 8 9 11 13 12 6 6 12 9 7 7 9 10 10 10 9 7 15 19 11 21 16 6 18 12 13 18 29 15 11 11
34 31 31 26 24 24 19 16 14 9 8 4 6 5 5 3 6 7 9 10 9 6 6 6 10 12 9 10 28 14 12 17 13 17 23 19 20 20 17 26 34 28 24
36 33 31 29 26 23 22 16 14 12 14 10 14 10 5 5 4 2 10 6 3 10 8 22 11 9 21 23 8 13 16 11 17 23 25 35 27 21 21 20 29 33 32
36 33 30 28 28 24 19 19 18 14 12 10 8 11 9 4 6 8 7 13 7 8 9 9 11 22 18 14 16 19 22 27 27 22 32 35 14 29 28 24 31 34 39
34 33 30 28 29 25 23 17 17 17 15 11 11 11 11 8 10 8 15 11 21 10 11 18 18 29 16 14 19 27 24 20 28 23 32 17 32 32 34 32 32 42 42
32 31 30 27 26 24 21 20 17 15 15 13 12 13 14 13 11 13 17 22 22 19 19 25 18 17 18 25 23 24 25 35 28 34 22 26 38 21 30 36 40 55 48
34 31 30 29 25 26 22 18 17 14 13 11 11 15 14 15 14 17 24 22 22 26 25 23 27 23 26 27 25 33 35 31 40 29 28 28 34 36 35 35 35 44 36
34 32 30 27 25 24 21 19 14 13 14 13 14 13 16 16 18 19 26 22 25 29 29 30 21 19 24 25 26 22 24 25 23 28 27 26 27 34 39 32 33 38 38
35 33 33 29 27 25 24 18 16 14 13 14 13 12 14 15 18 22 24 25 36 38 38 30 25 26 19 19 22 20 24 18 15 25 24 26 31 30 22 32 33 29 34
34 32 32 30 28 27 21 22 18 15 15 14 12 10 15 14 19 24 25 29 33 33 29 28 28 24 18 18 20 18 18 16 13 21 18 22 28 25 21 21 23 23 26
36 33 33 32 31 28 25 20 18 16 14 13 11 15 14 13 17 20 20 23 25 22 12 13 18 10 13 15 13 15 19 16 4 5 8 9 11 9 17 17 12 16 16
42 37 35 34 34 33 25 23 18 16 13 11 9 10 11 10 17 17 22 19 20 6 12 5 14 11 14 8 13 12 10 3 6 6 7 11 3 8 7 10 11 10 10
46 44 39 37 36 35 32 25 23 19 18 11 12 14 9 5 12 10 13 8 11 18 10 6 3 11 9 11 9 9 8 4 6 5 4 5 8 9 9 8 12 13 13
48 45 42 39 38 36 37 30 29 21 19 15 11 11 12 16 6 8 8 2 6 5 4 7 11 12 11 12 10 10 10 11 6 7 10 11 9 2 8 6 9 11 11
50 48 45 41 42 40 40 38 33 29 21 17 14 23 14 12 10 4 4 0 2 10 11 9 12 12 10 10 11 9 8 9 8 10 16 2 4 5 8 12 12 11 3
53 50 49 45 44 39 43 40 43 33 29 22 21 14 9 8 15 10 3 2 1 3 6 5 4 4 5 6 9 8 9 12 13 14 18 15 14 9 7 8 3 7 9
Wind_Direction_500mb
136 165 145 142 138 133 132 129 129 131 125 126 126 122 119 118 114 110 108 107 112 113 112 96 89 88 92 99 104 108 106 93 79 73 70 79 83 84 83 80 72 116 114
142 143 141 142 141 139 140 136 132 132 129 128 128 125 119 119 117 112 110 108 119 115 114 108 96 97 105 108 108 111 105 89 70 63 90 89 92 90 92 107 141 119 122
137 145 136 143 144 140 144 144 138 135 136 136 133 133 121 118 117 114 107 116 121 120 124 116 119 112 110 108 113 112 104 85 79 75 79 102 75 94 90 94 90 115 122
135 131 136 141 144 143 148 150 151 148 144 142 141 135 135 129 122 117 110 110 111 116 118 121 133 132 126 125 115 105 95 90 92 66 28 20 88 80 88 82 81 116 116
132 138 148 136 135 141 144 146 148 150 147 145 142 141 140 136 135 125 118 114 116 118 120 117 122 137 144 146 140 109 91 96 80 57 16 360 91 70 93 95 91 115 113
136 145 140 141 138 138 140 142 144 149 150 152 147 145 147 148 147 140 134 137 127 128 136 147 171 182 193 159 165 131 93 92 70 38 45 26 110 147 132 108 118 124 133
140 144 141 140 136 137 138 138 138 140 142 147 151 155 162 170 174 167 164 179 159 158 181 188 189 218 224 218 224 271 58 114 97 13 22 118 196 245 123 130 131 138 131
144 146 153 143 141 140 140 140 142 145 148 150 150 148 148 149 149 165 167 176 163 174 174 170 187 204 222 219 224 228 208 169 234 228 114 167 248 269 128 132 139 150 137
146 154 153 153 155 153 149 150 145 142 140 148 152 156 150 141 137 128 155 166 170 189 191 209 221 218 221 239 227 226 228 225 216 299 144 151 281 201 132 132 154 175 180
152 155 156 161 158 156 166 157 153 146 142 136 139 160 148 138 90 76 65 61 238 226 224 238 233 231 233 240 248 261 267 262 305 288 160 221 253 183 147 145 164 190 205
159 157 155 159 157 160 178 178 165 149 138 124 124 119 104 192 60 47 219 260 266 238 231 239 246 245 250 248 315 305 289 256 249 278 259 233 226 200 168 203 214 234 222
164 161 163 158 164 162 160 204 154 160 137 106 125 264 61 156 145 169 247 297 278 275 270 281 282 275 277 256 266 312 308 253 304 246 254 223 242 219 215 199 215 232 247
167 167 169 167 163 162 167 155 153 170 156 182 176 176 198 187 213 259 279 287 255 306 289 276 271 305 245 259 260 265 271 250 269 257 251 242 242 232 230 218 202 230 242
170 170 169 175 164 167 168 158 169 176 168 181 193 196 191 181 226 205 272 323 276 256 267 233 251 272 295 272 256 257 253 246 256 281 255 240 238 256 237 231 219 227 223
173 172 171 178 170 175 165 173 173 178 178 192 209 223 198 219 229 239 229 219 249 266 257 276 260 250 242 260 281 291 286 256 257 263 281 257 303 235 234 236 234 241 228
176 176 177 182 179 173 169 178 181 182 190 201 210 225 237 216 258 272 259 266 273 271 237 253 257 271 261 261 258 265 268 280 266 258 260 270 273 263 245 258 245 254 248
178 179 182 180 185 181 180 182 171 186 184 193 200 219 228 230 263 248 258 272 287 281 278 265 272 255 268 273 272 262 280 263 254 270 276 255 263 269 279 272 263 261 269
181 180 182 181 188 187 188 190 176 182 194 204 212 220 266 248 243 253 279 279 281 272 272 268 284 265 269 269 275 286 290 283 272 274 261 268 268 269 267 270 267 257 262
183 183 183 184 183 193 196 195 190 201 204 214 223 235 244 264 275 277 285 285 280 276 265 270 268 275 275 270 270 287 283 264 240 265 258 276 269 284 261 258 265 261 262
181 184 184 188 186 191 200 195 197 204 216 228 232 248 244 267 276 287 299 302 304 299 281 262 253 263 272 261 274 270 275 256 238 250 262 262 267 286 282 266 264 265 269
177 186 189 189 194 191 195 200 200 198 210 224 234 243 252 271 290 303 310 314 321 330 301 255 246 237 284 288 276 258 274 284 322 25 323 305 285 300 283 279 285 292 294
192 194 195 196 200 197 199 196 200 205 208 216 228 235 248 260 284 314 322 340 343 12 2 144 160 220 274 276 273 290 292 248 214 244 278 248 274 295 277 265 290 276 279
195 198 202 203 207 211 193 205 207 202 204 218 238 245 191 285 301 311 321 330 12 59 18 44 201 259 278 298 264 289 322 355 336 262 260 298 290 340 316 319 285 305 312
202 199 204 207 207 218 209 208 212 214 214 224 227 220 232 289 324 301 321 332 30 13 342 5 313 290 310 310 312 300 301 312 330 322 235 215 300 210 335 312 278 298 298
202 204 203 208 214 206 229 204 220 212 222 221 225 240 266 290 272 296 345 44 13 54 311 317 314 334 330 330 345 350 351 336 343 323 333 281 254 87 10 280 279 281 339
204 205 206 208 222 219 213 222 209 219 216 219 219 239 243 248 297 323 215 200 327 160 324 331 350 3 22 6 48 12 340 334 335 327 314 309 321 260 300 268 351 9 13
Wind_Speed_850mb
23 21 27 28 32 32 37 40 40 42 42 39 35 32 31 29 28 28 30 30 29 26 25 22 22 24 23 24 26 26 26 23 22 22 23 27 29 31 40 39 32 20 27
30 29 31 33 34 34 37 39 39 38 38 35 32 29 25 24 26 26 30 26 23 21 19 18 19 20 22 24 24 22 18 15 14 13 12 19 29 27 26 33 23 20 24
34 31 33 33 34 34 35 36 37 34 32 30 26 24 22 26 26 26 24 21 22 21 17 13 13 16 18 19 17 15 12 12 15 17 9 28 19 23 20 18 19 22 25
34 32 31 34 35 34 34 34 33 29 27 24 23 21 20 23 22 20 19 17 18 17 16 12 11 12 12 13 13 11 10 11 15 17 20 24 19 16 18 18 21 26 24
39 33 34 36 34 34 34 32 30 26 24 23 21 20 20 19 19 17 14 13 12 13 13 10 9 9 7 9 7 7 7 10 13 20 10 10 22 15 12 16 19 22 21
40 32 37 36 35 34 32 29 27 25 24 21 20 20 18 15 13 12 10 7 8 8 9 7 6 6 5 5 6 3 3 7 17 8 6 9 6 2 8 14 14 12 14
39 31 35 34 32 30 29 27 25 22 21 19 18 16 13 10 9 8 7 7 7 8 6 6 7 6 7 8 7 3 3 8 13 2 6 7 2 4 7 12 12 11 12
36 30 30 31 29 27 25 23 21 20 18 17 16 15 13 10 8 7 8 8 7 7 7 5 6 6 4 6 10 7 3 6 12 4 7 4 9 4 8 10 11 11 11
30 33 28 25 26 25 23 20 19 18 17 15 13 12 10 9 8 7 5 6 7 8 8 6 6 6 5 5 7 7 6 5 3 8 5 5 8 3 7 7 7 9 9
32 27 25 22 18 16 17 17 17 17 14 14 14 10 9 9 7 13 5 5 3 8 8 9 9 11 11 9 10 12 11 6 6 13 4 14 9 8 12 10 7 9 11
31 27 27 24 21 20 15 16 17 15 13 10 8 9 11 13 12 6 6 12 9 7 7 9 10 10 10 9 7 15 19 11 21 16 6 18 12 13 18 29 15 11 11
34 31 31 26 24 24 19 16 14 9 8 4 6 5 5 3 6 7 9 10 9 6 6 6 10 12 9 10 28 14 12 17 13 17 23 19 20 20 17 26 34 28 24
36 33 31 29 26 23 22 16 14 12 14 10 14 10 5 5 4 2 10 6 3 10 8 22 11 9 21 23 8 13 16 11 17 23 25 35 27 21 21 20 29 33 32
36 33 30 28 28 24 19 19 18 14 12 10 8 11 9 4 6 8 7 13 7 8 9 9 11 22 18 14 16 19 22 27 27 22 32 35 14 29 28 24 31 34 39
34 33 30 28 29 25 23 17 17 17 15 11 11 11 11 8 10 8 15 11 21 10 11 18 18 29 16 14 19 27 24 20 28 23 32 17 32 32 34 32 32 42 42
32 31 30 27 26 24 21 20 17 15 15 13 12 13 14 13 11 13 17 22 22 19 19 25 18 17 18 25 23 24 25 35 28 34 22 26 38 21 30 36 40 55 48
34 31 30 29 25 26 22 18 17 14 13 11 11 15 14 15 14 17 24 22 22 26 25 23 27 23 26 27 25 33 35 31 40 29 28 28 34 36 35 35 35 44 36
34 32 30 27 25 24 21 19 14 13 14 13 14 13 16 16 18 19 26 22 25 29 29 30 21 19 24 25 26 22 24 25 23 28 27 26 27 34 39 32 33 38 38
35 33 33 29 27 25 24 18 16 14 13 14 13 12 14 15 18 22 24 25 36 38 38 30 25 26 19 19 22 20 24 18 15 25 24 26 31 30 22 32 33 29 34
34 32 32 30 28 27 21 22 18 15 15 14 12 10 15 14 19 24 25 29 33 33 29 28 28 24 18 18 20 18 18 16 13 21 18 22 28 25 21 21 23 23 26
36 33 33 32 31 28 25 20 18 16 14 13 11 15 14 13 17 20 20 23 25 22 12 13 18 10 13 15 13 15 19 16 4 5 8 9 11 9 17 17 12 16 16
42 37 35 34 34 33 25 23 18 16 13 11 9 10 11 10 17 17 22 19 20 6 12 5 14 11 14 8 13 12 10 3 6 6 7 11 3 8 7 10 11 10 10
46 44 39 37 36 35 32 25 23 19 18 11 12 14 9 5 12 10 13 8 11 18 10 6 3 11 9 11 9 9 8 4 6 5 4 5 8 9 9 8 12 13 13
48 45 42 39 38 36 37 30 29 21 19 15 11 11 12 16 6 8 8 2 6 5 4 7 11 12 11 12 10 10 10 11 6 7 10 11 9 2 8 6 9 11 11
50 48 45 41 42 40 40 38 33 29 21 17 14 23 14 12 10 4 4 0 2 10 11 9 12 12 10 10 11 9 8 9 8 10 16 2 4 5 8 12 12 11 3
53 50 49 45 44 39 43 40 43 33 29 22 21 14 9 8 15 10 3 2 1 3 6 5 4 4 5 6 9 8 9 12 13 14 18 15 14 9 7 8 3 7 9
Wind_Direction_850mb
136 165 145 142 138 133 132 129 129 131 125 126 126 122 119 118 114 110 108 107 112 113 112 96 89 88 92 99 104 108 106 93 79 73 70 79 83 84 83 80 72 116 114
142 143 141 142 141 139 140 136 132 132 129 128 128 125 119 119 117 112 110 108 119 115 114 108 96 97 105 108 108 111 105 89 70 63 90 89 92 90 92 107 141 119 122
137 145 136 143 144 140 144 144 138 135 136 136 133 133 121 118 117 114 107 116 121 120 124 116 119 112 110 108 113 112 104 85 79 75 79 102 75 94 90 94 90 115 122
135 131 136 141 144 143 148 150 151 148 144 142 141 135 135 129 122 117 110 110 111 116 118 121 133 132 126 125 115 105 95 90 92 66 28 20 88 80 88 82 81 116 116
132 138 148 136 135 141 144 146 148 150 147 145 142 141 140 136 135 125 118 114 116 118 120 117 122 137 144 146 140 109 91 96 80 57 16 360 91 70 93 95 91 115 113
136 145 140 141 138 138 140 142 144 149 150 152 147 145 147 148 147 140 134 137 127 128 136 147 171 182 193 159 165 131 93 92 70 38 45 26 110 147 132 108 118 124 133
140 144 141 140 136 137 138 138 138 140 142 147 151 155 162 170 174 167 164 179 159 158 181 188 189 218 224 218 224 271 58 114 97 13 22 118 196 245 123 130 131 138 131
144 146 153 143 141 140 140 140 142 145 148 150 150 148 148 149 149 165 167 176 163 174 174 170 187 204 222 219 224 228 208 169 234 228 114 167 248 269 128 132 139 150 137
146 154 153 153 155 153 149 150 145 142 140 148 152 156 150 141 137 128 155 166 170 189 191 209 221 218 221 239 227 226 228 225 216 299 144 151 281 201 132 132 154 175 180
152 155 156 161 158 156 166 157 153 146 142 136 139 160 148 138 90 76 65 61 238 226 224 238 233 231 233 240 248 261 267 262 305 288 160 221 253 183 147 145 164 190 205
159 157 155 159 157 160 178 178 165 149 138 124 124 119 104 192 60 47 219 260 266 238 231 239 246 245 250 248 315 305 289 256 249 278 259 233 226 200 168 203 214 234 222
164 161 163 158 164 162 160 204 154 160 137 106 125 264 61 156 145 169 247 297 278 275 270 281 282 275 277 256 266 312 308 253 304 246 254 223 242 219 215 199 215 232 247
167 167 169 167 163 162 167 155 153 170 156 182 176 176 198 187 213 259 279 287 255 306 289 276 271 305 245 259 260 265 271 250 269 257 251 242 242 232 230 218 202 230 242
170 170 169 175 164 167 168 158 169 176 168 181 193 196 191 181 226 205 272 323 276 256 267 233 251 272 295 272 256 257 253 246 256 281 255 240 238 256 237 231 219 227 223
173 172 171 178 170 175 165 173 173 178 178 192 209 223 198 219 229 239 229 219 249 266 257 276 260 250 242 260 281 291 286 256 257 263 281 257 303 235 234 236 234 241 228
176 176 177 182 179 173 169 178 181 182 190 201 210 225 237 216 258 272 259 266 273 271 237 253 257 271 261 261 258 265 268 280 266 258 260 270 273 263 245 258 245 254 248
178 179 182 180 185 181 180 182 171 186 184 193 200 219 228 230 263 248 258 272 287 281 278 265 272 255 268 273 272 262 280 263 254 270 276 255 263 269 279 272 263 261 269
181 180 182 181 188 187 188 190 176 182 194 204 212 220 266 248 243 253 279 279 281 272 272 268 284 265 269 269 275 286 290 283 272 274 261 268 268 269 267 270 267 257 262
183 183 183 184 183 193 196 195 190 201 204 214 223 235 244 264 275 277 285 285 280 276 265 270 268 275 275 270 270 287 283 264 240 265 258 276 269 284 261 258 265 261 262
181 184 184 188 186 191 200 195 197 204 216 228 232 248 244 267 276 287 299 302 304 299 281 262 253 263 272 261 274 270 275 256 238 250 262 262 267 286 282 266 264 265 269
177 186 189 189 194 191 195 200 200 198 210 224 234 243 252 271 290 303 310 314 321 330 301 255 246 237 284 288 276 258 274 284 322 25 323 305 285 300 283 279 285 292 294
192 194 195 196 200 197 199 196 200 205 208 216 228 235 248 260 284 314 322 340 343 12 2 144 160 220 274 276 273 290 292 248 214 244 278 248 274 295 277 265 290 276 279
195 198 202 203 207 211 193 205 207 202 204 218 238 245 191 285 301 311 321 330 12 59 18 44 201 259 278 298 264 289 322 355 336 262 260 298 290 340 316 319 285 305 312
202 199 204 207 207 218 209 208 212 214 214 224 227 220 232 289 324 301 321 332 30 13 342 5 313 290 310 310 312 300 301 312 330 322 235 215 300 210 335 312 278 298 298
202 204 203 208 214 206 229 204 220 212 222 221 225 240 266 290 272 296 345 44 13 54 311 317 314 334 330 330 345 350 351 336 343 323 333 281 254 87 10 280 279 281 339
204 205 206 208 222 219 213 222 209 219 216 219 219 239 243 248 297 323 215 200 327 160 324 331 350 3 22 6 48 12 340 334 335 327 314 309 321 260 300 268 351 9 13